Regional Weather Roundup
Issued by NWS Newport/Morehead, NC

Current Version | Previous Version | Text Only | Print | Product List | Glossary Off
Versions: 1 2 3 4 5 6 7 8 9 10 11 12 13 14 15 16 17 18 19 20 21 22 23 24 25 26 27 28 29 30 31 32 33 34 35 36 37 38 39 40 41 42 43 44 45 46 47 48 49 50
000 ASUS42 KMHX 291110 RWRMHX WEATHER ROUNDUP FOR EASTERN NORTH CAROLINA NATIONAL WEATHER SERVICE NEWPORT/MOREHEAD CITY NC 700 AM EDT FRI AUG 29 2014 NOTE: "FAIR" INDICATES FEW OR NO CLOUDS BELOW 12,000 FEET WITH NO SIGNIFICANT WEATHER AND/OR OBSTRUCTIONS TO VISIBILITY NCZ015>017-031-032-045>047-102-103-291200- NORTH COAST CITY SKY/WX TMP DP RH WIND PRES REMARKS EDENTON CLOUDY 72 70 94 NE5 30.08R ELIZABETH CITY LGT RAIN 74 71 91 E8 30.09R KITTY HAWK CLOUDY 75 71 86 NE3 30.08R MANTEO CLOUDY 74 69 85 NE9 30.09R $$ NCZ045>047-081-094-103-104-291200- CENTRAL COAST CITY SKY/WX TMP DP RH WIND PRES REMARKS FRISCO MOCLDY 75 72 90 W3 30.07R SWANQUARTER N/A 77 N/A N/A W3 30.03R $$ NCZ095-097-098-100-101-291200- SOUTHERN COAST CITY SKY/WX TMP DP RH WIND PRES REMARKS BEAUFORT PTCLDY 78 73 84 W5 30.07R CEDAR ISLAND N/A 77 N/A N/A SW3 30.09S JACKSONVILLE PTCLDY 71 68 90 SW3 30.07R NEWPORT NOT AVBL PINEY ISLAND PTSUNNY 76 72 87 NW5 30.07R WILMINGTON CLEAR 72 68 87 SW5 30.07R $$ NCZ011>013-027>030-043-044-078>080-089-090>093-098-291200- COASTAL PLAIN CITY SKY/WX TMP DP RH WIND PRES REMARKS AHOSKIE PTCLDY 67 66 94 N8 30.09R CLINTON NOT AVBL ELIZABETHTOWN MOCLDY 71 66 86 CALM 30.07R GOLDSBORO PTCLDY 73 72 98 SE1 30.06R GREENVILLE CLOUDY 73 72 94 NE6 30.09R HAVELOCK MOCLDY 72 69 90 W5 30.08R KENANSVILLE PTCLDY 70 66 88 CALM 30.08R KINSTON MOCLDY 72 70 94 CALM 30.08R NEW BERN MOCLDY 74 68 81 SW5 30.08R RICHLANDS PTCLDY 70 66 88 CALM 30.08R ROANOKE RAPIDS NOT AVBL ROCKY MOUNT PTCLDY 72 69 90 NE5 30.09R WASHINGTON MOCLDY 72 71 96 NE3 30.07R WHITEVILLE MOCLDY 70 67 90 CALM 30.07R $$ AMZ130-135-150-152-154-156-158-170-250-252-270-ANZ085-086-088-633-658-670-291200- MARINE OBSERVATIONS STATION/POSITION TIME TEMP WIND PRES WAVE SWELL AIR SEA DIR/SP/G HT/PER HT/PER (UTC) (F) (DEG/KT/KT) (MB) (FT/S) (FT/S) CHESAPEAKE LIGHT 1000 75 60/ 12/ 13 1019.5 BUOY 44014 1100 76 75 30/ 10/ 12 1018.7 4/ 9 3/ 9 DUCK 1100 76 78 60/ 14/ 15 1018.3 2E DUCK 1100 N/A 3/11 2/11 OREGON INLET 1100 76 79 50/ 10/ 13 1018.2 BUOY 44095 1100 77 N/A 4/ 8 2/11 20E OREGON INLET NOT AVBL HATTERAS CG 1100 78 81 240/ 5/ 6 1018.5 DIAMOND BUOY 1100 80 270/ 6/ 8 1018.0 3/ 8 3/ 8 CAPE LOOKOUT 1000 79 240/ 7/ 11 1017.3 BEAUFORT LAB 1100 79 80 250/ 3/ 5 1017.4 30 SE NEW RIVER 1100 80 81 260/ 10/ 10 1018.4 4/ 9 3/ 9 5 SE WRIGHTSVILL 1100 74 81 270/ 10/ 12 N/A BUOY 41002 0951 80 82 60/ 2/ 2 1019.5 4/ 8 3/ 8 BUOY 41004 1100 82 83 170/ 6/ 8 1017.4 4/ 9 3/ 9 $$

USA.gov is the U.S. government's official web portal to all federal, state and local government web resources and services.